RH
84 80 79 79 76 75 76 82 84 90 92 91 91 93 94 83 81 96 73 66 80 86 67 72 98 94 76 70 75 62 58 58 59 55 48 42 41 31 34 26 51 57 64 66 55 54 59 43 47 44 50 54 53 53
91 92 85 80 87 89 89 79 76 75 77 83 92 94 94 84 90 95 94 72 75 80 65 62 64 74 100 76 83 81 61 61 53 54 45 39 40 40 35 40 42 43 36 36 45 45 69 59 62 55 55 60 60 63
78 85 91 92 82 78 84 92 90 72 73 75 79 93 93 95 97 96 97 92 84 69 59 58 56 60 67 95 100 100 86 70 61 59 67 64 75 48 46 45 35 40 40 50 51 77 95 100 100 99 87 99 96 86
74 71 76 90 92 89 78 75 74 73 82 85 74 78 91 89 85 90 95 88 91 68 81 46 53 62 92 95 98 100 99 100 98 95 95 96 87 57 56 58 56 84 82 57 94 100 99 100 100 100 100 86 70 53
81 77 72 75 90 88 85 81 74 75 86 91 88 77 78 88 86 89 81 78 87 79 75 57 48 50 56 63 92 99 97 99 100 100 100 100 99 94 97 90 90 94 95 98 95 97 87 98 100 99 92 72 61 57
85 85 87 79 80 91 89 90 81 88 87 80 78 80 80 83 91 76 52 93 97 99 99 78 42 47 60 76 83 96 94 99 100 100 100 100 100 100 98 92 96 95 96 97 95 97 96 97 95 86 84 75 57 53
79 79 80 83 77 90 93 94 87 83 86 80 78 75 78 89 85 68 47 86 93 98 99 77 57 46 62 69 92 96 95 100 100 100 100 99 95 92 94 92 95 95 96 96 98 93 94 92 95 78 68 66 53 46
85 82 85 82 86 95 94 95 83 87 85 85 79 81 87 82 77 73 84 94 95 93 99 87 63 45 69 83 90 100 98 100 100 100 97 94 91 92 94 96 96 95 92 91 92 91 93 82 64 57 46 43 43 44
79 90 89 88 92 81 76 84 81 85 87 82 78 61 80 81 70 76 66 92 100 92 93 93 82 80 74 84 88 94 96 95 94 91 93 83 90 93 95 95 94 95 94 96 82 63 58 57 53 51 48 48 50 51
79 88 93 95 82 81 87 83 84 82 86 63 69 53 57 80 65 72 92 70 72 87 88 82 60 80 67 67 85 82 94 94 94 93 81 89 94 96 96 96 93 93 84 70 71 68 60 61 59 57 56 54 55 55
78 83 90 96 86 90 88 89 89 86 74 80 75 72 81 62 71 62 77 79 80 84 74 75 66 78 82 88 88 88 94 94 93 92 74 89 91 94 95 92 83 70 62 62 61 61 61 59 60 60 58 57 57 57
79 73 85 97 89 89 88 91 92 88 90 90 91 86 67 63 71 73 85 71 78 85 75 80 72 75 77 66 92 92 94 90 93 88 79 88 92 91 78 74 69 61 62 62 62 61 61 60 62 63 62 60 61 62
81 82 88 98 93 92 94 85 92 74 81 80 65 65 76 78 76 78 82 78 83 78 77 83 80 78 70 67 81 83 91 92 89 84 88 90 91 71 66 62 58 60 62 61 58 59 62 63 63 63 64 64 64 64
82 91 93 97 89 88 89 93 74 75 71 78 78 83 85 82 78 88 87 85 74 81 84 82 81 79 74 81 86 78 88 80 82 80 90 90 79 66 62 62 64 65 66 72 70 70 70 67 67 67 66 66 66 66
96 99 90 93 90 92 89 76 74 66 74 84 76 86 84 84 85 84 80 73 76 80 80 79 76 70 81 80 78 66 64 76 78 87 86 77 70 68 69 67 66 65 66 73 71 77 80 79 79 77 73 71 73 73
98 90 94 95 92 78 78 72 65 73 88 80 82 89 77 86 81 79 82 81 78 82 76 73 78 77 91 81 73 87 64 85 88 86 85 76 82 79 75 70 71 69 66 66 65 66 66 65 67 70 73 74 76 79
80 95 97 80 76 68 63 64 68 87 85 82 90 77 84 84 86 83 78 81 76 73 87 82 86 93 84 75 80 80 88 88 87 81 70 66 77 81 88 83 73 71 71 70 72 73 75 76 81 78 71 70 75 75
98 92 72 65 67 66 68 69 82 84 86 89 86 88 77 76 83 76 76 74 78 78 77 91 73 82 82 84 86 89 86 72 63 62 60 60 69 80 81 78 78 82 77 77 83 82 80 84 81 75 76 76 75 72
93 68 62 60 64 67 87 86 84 90 94 83 72 75 73 75 72 64 64 69 73 71 78 77 77 86 85 85 85 77 73 72 68 58 53 55 65 81 84 84 81 77 81 82 80 80 80 86 83 76 78 75 78 80
64 66 64 60 60 72 84 92 86 82 87 83 73 78 75 80 75 70 64 70 69 76 85 86 87 86 82 80 78 74 69 64 60 64 59 59 63 69 72 80 77 79 76 75 76 75 80 75 74 77 78 89 86 80
62 65 62 61 64 74 90 94 90 89 84 85 86 78 86 81 84 86 86 78 83 91 88 82 82 83 83 71 68 66 68 71 68 68 73 74 70 68 71 73 75 78 80 80 82 78 80 80 82 83 92 87 86 94
69 68 58 60 74 83 90 100 95 88 84 90 84 81 90 90 91 93 90 82 85 85 82 80 79 78 70 67 67 71 75 76 73 71 72 73 73 74 74 75 77 83 83 86 86 85 84 86 90 94 91 92 93 91
60 58 57 58 77 80 92 90 88 90 88 93 88 87 92 92 92 88 92 82 81 83 84 84 84 82 70 70 69 72 77 79 74 74 75 77 77 76 78 80 77 84 84 82 87 90 92 90 92 95 96 93 94 94
53 67 85 88 86 89 82 88 82 84 84 88 90 92 93 93 90 83 86 81 84 81 80 80 76 71 69 70 70 74 79 82 77 74 78 84 81 79 82 83 79 79 85 86 91 93 94 95 93 95 96 96 95 95
80 91 89 94 88 88 91 88 89 84 92 95 91 93 92 91 90 88 86 85 83 84 80 77 76 75 80 78 75 78 82 91 92 89 79 86 89 86 85 85 82 81 85 94 94 95 94 96 96 96 97 97 97 96
98 97 91 93 90 90 92 93 95 96 92 92 93 90 90 88 88 90 86 86 82 82 85 84 85 82 78 82 86 86 92 100 100 91 79 84 92 94 94 91 89 85 88 99 99 97 96 96 96 97 96 95 93 96
92 93 88 88 87 86 89 87 87 88 92 95 90 90 88 91 90 86 83 85 83 89 97 99 98 93 90 92 96 99 100 97 97 94 79 71 73 87 96 98 96 98 100 100 100 100 97 97 98 97 97 97 97 96
91 88 97 89 89 87 92 90 92 95 88 83 82 94 92 89 87 82 84 96 98 95 96 97 98 100 100 100 100 100 96 87 86 79 72 72 74 78 91 100 100 100 100 99 97 96 98 100 98 98 98 98 96 96
90 85 84 96 93 91 94 93 90 85 83 84 89 86 87 80 89 88 97 98 77 88 95 98 95 98 92 93 89 91 90 93 100 96 93 87 84 84 92 95 99 97 100 93 100 98 96 96 96 97 98 97 97 96
94 88 91 94 95 96 92 91 91 88 90 90 78 81 82 91 100 88 90 87 85 88 89 94 96 98 100 100 100 90 84 86 97 100 96 96 96 89 92 96 100 100 86 87 95 100 99 96 94 91 94 94 94 95
87 89 90 92 95 92 91 95 98 98 96 92 89 84 86 92 98 95 95 90 82 80 89 95 96 97 100 100 100 100 97 86 90 95 100 100 97 94 96 96 99 91 86 89 97 100 99 96 96 96 96 96 96 96
89 99 100 100 94 89 87 93 94 96 95 94 94 95 96 94 96 87 84 83 80 85 85 88 98 98 86 90 89 93 100 98 97 98 98 96 93 99 100 99 93 85 90 91 93 99 100 98 97 97 97 96 96 96
91 91 95 92 92 88 90 95 93 95 95 97 96 94 94 92 93 81 79 76 81 89 97 96 93 91 82 81 87 95 98 98 97 100 100 100 98 97 97 93 94 96 93 94 94 96 96 99 99 97 96 96 96 97
Wind_Speed
16 16 17 17 16 15 15 15 14 15 16 16 16 14 13 12 12 10 6 2 2 3 10 6 5 5 5 3 3 4 2 3 4 7 6 8 8 9 9 8 8 9 10 6 7 8 11 10 6 6 5 8 11 11
21 20 17 18 19 17 15 15 15 17 18 18 19 16 14 13 11 9 5 4 5 5 7 23 23 22 15 15 7 4 5 3 2 5 6 5 7 4 10 11 2 6 8 4 9 3 5 3 6 8 6 13 12 13
22 22 21 20 18 18 17 16 16 18 18 18 17 17 14 13 11 7 6 7 6 5 10 8 7 11 15 18 7 3 3 4 4 2 2 2 6 2 8 10 8 4 2 3 2 8 6 7 7 6 9 10 10 11
22 22 22 21 21 18 18 18 19 17 18 17 16 16 15 14 13 12 11 10 8 5 4 6 6 6 8 12 13 13 8 5 5 3 4 4 4 3 4 4 6 4 7 3 3 5 11 8 7 9 11 13 14 12
21 22 22 22 21 19 16 14 16 16 18 16 14 15 15 15 15 14 13 12 11 7 5 9 20 18 16 12 13 14 14 6 2 2 3 2 2 3 2 2 4 6 4 3 1 5 6 10 8 10 13 13 13 12
25 25 24 22 20 18 16 13 14 15 15 15 15 15 15 15 13 10 3 4 6 4 3 3 5 6 5 8 10 11 10 4 3 2 2 1 2 2 3 3 7 9 11 7 4 15 15 14 13 14 13 11 9 10
28 27 24 18 17 17 15 13 13 15 17 15 17 18 18 14 11 6 4 5 6 6 3 4 4 1 3 5 3 3 10 3 3 2 3 2 3 4 3 3 6 12 14 12 10 10 13 12 9 11 10 9 10 9
26 21 15 12 15 13 11 10 12 14 16 17 19 19 16 11 6 4 4 5 8 5 3 3 4 3 6 3 3 1 3 3 2 0 3 3 3 3 4 6 8 9 13 16 15 15 13 10 9 7 9 8 6 5
22 20 18 17 16 6 7 8 10 14 15 18 20 13 2 1 2 2 12 10 5 3 3 2 3 4 6 2 2 2 2 1 4 4 4 3 4 5 8 8 10 12 10 8 9 9 9 9 8 7 6 6 5 5
21 21 19 17 10 5 5 7 9 13 16 15 6 3 1 1 13 8 2 1 0 1 2 2 4 4 6 4 1 4 2 2 3 4 3 4 7 10 10 9 10 10 10 10 10 9 9 8 7 6 6 5 6 6
19 20 20 18 10 5 5 6 8 13 8 5 5 2 6 10 3 2 1 2 1 2 3 3 4 5 3 4 3 3 3 3 3 4 3 3 3 6 8 9 8 9 10 9 7 6 7 7 7 8 8 10 10 10
18 17 17 18 5 5 4 7 8 8 5 4 5 4 4 3 1 1 2 2 3 4 4 5 5 4 3 3 3 4 3 3 5 2 3 3 3 7 7 7 6 9 9 9 9 10 11 11 10 9 9 10 10 11
17 16 17 16 6 4 5 6 4 8 6 1 1 2 4 3 4 4 4 3 3 6 5 5 4 3 3 4 1 3 4 4 1 3 3 4 5 6 6 6 7 10 11 12 12 12 12 11 11 11 12 12 12 13
15 14 15 7 5 2 3 3 5 5 2 2 3 5 4 3 4 4 5 4 4 6 7 6 3 3 2 3 2 4 3 1 3 3 4 4 7 7 7 7 8 9 11 12 13 13 13 13 14 13 12 12 13 14
14 7 3 10 6 5 4 5 6 5 3 3 3 4 5 3 4 3 5 4 5 6 5 3 1 2 4 3 4 2 4 5 5 4 3 5 7 8 8 10 10 10 12 10 11 10 11 12 12 13 13 13 13 13
8 8 8 7 7 6 6 6 6 3 4 2 5 1 3 1 5 5 6 7 6 6 2 1 2 3 6 4 5 5 3 5 3 3 4 6 6 7 8 10 11 13 13 13 12 13 14 14 14 14 15 12 11 11
13 8 9 8 7 9 9 3 4 5 3 4 3 6 5 3 5 5 6 7 12 4 3 2 5 4 3 4 3 5 4 4 5 5 5 6 7 7 8 10 12 12 12 12 13 14 14 13 12 13 12 13 13 14
10 10 10 8 7 6 5 7 4 4 5 4 3 5 5 5 6 6 6 7 6 4 3 4 2 6 4 3 3 3 4 5 5 6 7 8 10 10 12 13 13 12 12 13 13 13 12 11 12 11 13 13 15 14
11 11 10 10 5 3 4 5 5 3 4 2 3 5 3 3 6 10 9 9 6 5 3 3 5 4 4 4 6 5 6 6 7 8 7 10 11 10 11 12 12 12 14 13 13 12 12 12 11 12 13 14 15 15
9 11 12 10 4 3 3 3 4 3 3 3 4 5 3 3 5 5 7 7 6 3 6 5 5 6 4 5 6 6 5 9 6 7 7 10 13 14 13 13 13 14 13 13 12 13 13 13 12 13 14 16 15 15
8 11 10 6 5 9 5 3 3 3 2 3 3 3 2 2 4 6 6 8 5 4 4 5 6 6 8 9 9 10 9 11 6 6 7 8 16 13 12 12 13 12 13 13 12 13 14 13 15 15 16 16 16 17
8 9 5 7 5 4 4 6 2 2 2 2 2 3 3 3 4 4 4 5 4 4 4 5 7 9 8 10 10 9 10 12 10 10 11 12 9 11 12 13 13 13 13 12 12 13 15 15 17 17 17 18 18 17
7 6 5 10 4 5 2 5 2 5 2 2 1 2 2 2 2 5 3 3 3 8 9 10 12 10 9 9 8 9 11 12 12 12 13 12 11 10 11 12 12 13 13 13 13 15 16 19 18 19 19 18 18 18
7 6 5 4 5 3 2 4 2 2 2 3 2 2 2 3 4 2 3 2 2 8 10 13 12 10 10 9 9 10 13 13 13 12 11 11 12 13 13 14 14 12 11 13 15 18 19 19 21 20 19 19 19 18
5 7 5 6 4 5 5 4 5 4 3 3 2 2 2 2 2 2 2 2 4 6 10 13 12 10 6 7 11 11 11 12 14 14 13 9 13 13 12 13 14 14 11 15 19 21 21 21 21 21 21 20 19 18
6 5 5 5 3 4 4 4 4 4 2 3 3 1 1 1 3 3 2 4 4 6 11 12 8 7 9 10 12 13 14 13 13 13 10 10 11 11 13 14 16 17 14 22 23 23 24 22 21 22 20 19 18 16
5 5 3 3 2 2 0 0 1 2 4 5 3 4 2 3 3 2 2 6 6 10 9 9 9 10 13 15 14 13 13 13 11 17 18 14 10 7 9 13 17 21 27 25 24 23 22 23 23 19 18 18 15 14
2 5 5 6 3 2 3 3 4 4 4 4 3 4 2 3 2 2 2 3 8 13 10 7 10 10 13 13 14 14 14 14 14 13 13 9 9 7 11 18 20 20 21 22 22 23 22 23 19 18 16 15 15 14
3 5 4 4 3 3 3 3 3 3 4 3 3 1 2 2 2 2 1 3 11 13 12 12 14 16 15 15 11 10 11 10 10 6 9 7 12 10 23 27 28 26 26 26 21 18 20 20 18 16 14 12 12 11
4 5 3 3 3 3 2 2 3 3 3 2 1 2 2 1 2 2 1 5 9 11 15 14 17 17 16 17 17 17 15 8 5 7 7 9 15 28 30 30 28 25 28 25 22 21 20 19 17 16 15 14 14 13
4 3 2 2 1 1 2 6 4 2 2 1 2 1 1 1 3 5 4 4 8 11 16 16 19 18 16 16 14 14 17 9 10 18 19 20 23 26 26 26 20 27 23 21 20 18 20 19 17 15 14 14 14 13
4 3 3 3 2 1 5 3 2 1 1 1 1 1 1 1 2 3 3 1 9 13 13 16 17 23 27 24 20 20 16 16 18 21 20 22 24 25 23 20 27 23 20 20 19 17 16 16 15 14 13 13 13 13
2 1 1 2 3 4 3 4 3 3 1 1 1 1 1 1 3 1 3 3 10 20 22 18 18 28 28 25 22 14 13 17 19 17 17 17 18 18 19 23 23 21 19 18 17 15 16 15 14 13 13 13 13 12
Wind_Direction
312 313 315 316 312 309 311 321 329 332 332 327 317 321 324 319 319 337 303 289 213 273 279 262 324 336 339 240 268 30 255 206 187 221 226 218 238 223 237 235 166 172 170 186 201 233 247 141 128 213 100 109 125 129
316 304 302 302 305 311 306 309 313 317 317 322 330 316 303 319 337 322 282 262 244 235 280 293 275 260 242 279 297 254 286 322 307 236 227 240 229 226 229 239 90 219 214 200 200 216 78 96 60 105 131 132 125 118
310 312 305 294 296 296 309 304 310 320 317 313 313 327 328 313 305 309 296 296 273 272 284 262 279 318 222 231 246 266 247 309 232 17 322 293 258 285 228 229 257 212 152 238 163 141 106 84 60 47 83 99 100 114
311 304 305 304 291 292 295 298 305 305 308 315 310 310 320 320 318 310 280 277 272 275 276 299 301 269 223 263 281 262 283 304 317 319 235 230 232 198 250 312 295 359 321 238 83 92 94 72 76 91 91 99 101 101
316 313 303 300 300 287 287 298 308 305 307 311 309 307 304 311 311 311 284 278 257 248 300 297 302 286 261 245 252 258 244 255 233 208 220 230 243 236 267 69 39 348 339 270 67 113 94 107 100 93 94 94 100 109
318 313 302 295 295 291 281 287 302 309 311 315 314 309 302 301 309 318 276 211 222 238 294 285 342 276 266 247 266 275 259 242 204 237 220 195 63 242 84 76 18 16 38 41 63 81 88 93 90 89 92 93 88 80
322 320 310 287 285 298 274 280 303 305 309 309 313 312 306 306 298 250 298 338 296 283 262 287 276 149 310 301 282 268 232 213 192 205 215 71 48 45 41 74 27 38 42 46 50 85 74 64 77 79 84 84 88 89
337 336 331 316 300 291 270 283 299 308 312 310 315 310 301 295 282 268 271 319 321 238 225 270 278 280 12 312 295 338 294 170 189 25 51 43 39 61 73 59 52 44 56 50 49 57 72 82 72 67 66 62 70 60
333 335 326 317 318 284 279 294 307 315 317 313 313 311 283 235 286 309 302 292 259 283 299 272 313 331 343 309 300 292 303 40 52 37 38 55 48 54 69 64 54 40 37 51 66 58 63 61 58 45 37 32 24 9
338 334 331 333 322 259 289 304 309 321 322 322 339 309 246 11 313 312 192 268 168 3 261 294 336 316 326 334 323 322 337 21 83 58 83 73 75 78 60 51 46 40 38 30 38 30 22 28 21 12 6 357 354 343
332 334 336 329 303 246 293 317 324 331 342 349 351 334 318 327 315 337 21 325 16 189 8 349 345 327 25 327 330 25 324 349 74 50 49 76 69 49 50 53 43 38 39 38 37 29 20 6 358 353 349 347 342 334
331 327 327 332 286 234 286 308 320 336 331 312 314 307 319 357 353 13 21 351 351 30 4 342 340 326 326 335 311 2 355 50 68 13 74 80 55 37 48 51 41 32 28 26 19 8 3 358 351 337 329 332 330 323
326 323 326 319 292 247 304 328 324 329 336 0 359 26 340 350 30 16 15 19 21 353 11 336 321 346 318 9 33 355 41 56 253 42 60 59 45 34 28 23 19 20 16 11 0 356 348 342 340 339 329 324 321 316
322 322 326 5 80 52 11 0 351 348 20 44 8 23 14 26 41 19 11 10 359 323 334 329 311 358 349 14 346 52 41 323 69 61 65 53 25 12 16 14 8 2 360 354 345 341 338 336 329 324 319 317 315 311
321 329 54 52 36 53 58 21 7 28 46 50 5 35 44 31 45 13 353 327 354 324 330 303 264 324 13 49 22 17 47 53 39 47 59 19 7 5 5 2 355 348 341 333 328 322 318 315 313 312 313 311 307 303
65 70 48 43 57 36 14 6 23 50 60 45 39 10 0 332 39 10 359 352 358 336 286 298 356 53 43 10 40 25 34 40 54 33 24 357 3 357 354 345 339 333 326 321 322 323 321 320 316 313 311 305 303 304
67 47 39 22 23 13 11 40 33 44 47 31 34 21 7 28 17 3 347 346 328 332 18 5 43 20 286 43 47 15 37 23 7 357 357 358 351 357 343 332 335 331 326 329 327 323 320 317 316 308 310 322 316 312
49 28 19 5 348 353 29 34 69 52 56 25 31 16 34 28 11 11 350 354 1 16 18 55 87 28 44 30 47 38 19 360 354 348 337 344 355 356 348 335 336 332 332 333 326 321 318 319 321 320 321 320 318 314
36 20 13 8 11 54 51 36 26 83 44 11 28 14 15 4 10 6 1 5 23 34 84 37 52 30 46 31 4 7 2 357 335 332 330 353 353 355 339 340 330 338 338 331 333 325 324 318 320 322 321 324 317 320
359 7 13 20 38 65 69 38 26 67 52 38 21 26 33 11 343 360 20 14 29 48 42 42 40 30 22 13 7 354 360 346 335 334 341 345 346 347 345 341 340 335 334 336 335 336 331 334 332 330 323 316 322 317
357 4 11 25 48 58 73 2 61 38 49 63 350 7 32 4 18 14 16 348 43 30 55 30 18 18 25 12 11 355 3 351 341 334 328 328 338 340 339 341 342 338 338 334 334 333 336 330 328 322 319 317 312 304
353 1 16 32 67 59 80 24 25 3 43 41 40 4 32 23 11 18 323 34 50 32 16 357 356 353 353 5 2 5 354 345 340 336 337 335 336 340 339 338 337 336 332 330 330 328 326 325 320 322 317 311 315 311
5 15 42 22 68 38 22 357 49 9 50 30 339 45 36 29 11 317 70 47 70 25 7 358 345 344 347 352 356 4 2 353 347 344 340 337 332 330 332 333 336 331 328 331 332 326 322 322 321 317 316 313 311 310
13 45 34 36 12 17 329 32 40 41 61 27 19 62 31 355 327 62 75 64 60 14 6 356 352 348 354 358 1 355 355 350 343 341 343 336 335 335 333 330 334 332 327 321 326 324 321 316 321 316 313 312 311 304
59 3 22 7 7 9 23 10 1 25 41 0 9 43 25 321 62 59 63 37 0 10 358 349 350 350 343 336 342 343 348 350 341 332 334 335 330 327 329 332 335 336 335 333 328 323 320 322 320 316 314 311 306 315
63 356 29 353 355 21 352 356 20 7 349 11 35 8 309 39 61 56 54 5 354 1 351 341 334 332 332 338 328 330 331 334 331 324 322 329 321 316 321 327 329 332 336 328 319 320 317 319 321 320 322 329 333 336
43 350 350 27 320 312 288 54 253 342 17 15 0 350 23 58 59 64 94 29 350 341 325 323 325 322 316 314 313 313 315 323 319 319 320 323 326 317 313 319 320 319 327 326 326 322 327 327 321 329 331 333 337 341
28 11 347 333 353 352 12 18 21 17 5 347 329 25 49 34 61 62 57 9 347 344 341 311 316 320 318 310 307 309 320 325 330 343 355 341 347 327 335 328 332 331 332 334 331 333 334 330 336 338 341 340 343 354
14 347 332 346 343 42 43 18 2 1 341 313 344 65 91 65 67 119 127 353 360 3 350 344 340 337 339 334 331 322 323 323 336 333 342 332 331 330 335 344 345 346 338 339 338 338 340 341 343 345 349 354 357 6
351 345 351 1 53 16 20 347 320 332 322 358 83 105 102 114 146 132 23 349 356 358 359 351 344 347 335 334 326 335 344 324 318 335 321 313 310 324 334 335 336 336 338 339 340 340 343 345 353 360 2 5 10 5
328 327 333 322 305 10 339 313 280 286 316 31 41 97 115 154 229 238 255 319 336 339 356 348 349 348 337 330 323 320 321 324 315 322 319 311 313 319 326 327 327 333 336 338 339 338 339 343 346 348 351 355 1 2
337 23 339 321 290 355 4 7 335 312 328 227 154 118 150 203 254 205 196 346 355 350 340 343 343 339 344 336 326 321 300 298 312 317 320 323 321 321 321 324 331 336 338 339 340 338 337 339 337 342 344 345 347 350
296 328 305 307 311 335 3 343 11 329 242 233 226 230 221 256 263 84 200 302 345 343 332 328 329 341 340 339 335 326 325 319 319 313 313 313 317 324 330 328 332 335 334 335 338 338 336 334 334 335 341 344 345 345